Location: Pensacola
(30.4142°N, 87.2155°W)
Time: 01:57:13
(UTC-05:00)

DIWATA 2B (PO-101) - Visible Passes

Search period start: 09 June 2023 00:00
Search period end: 19 June 2023 00:00
Orbit: 581 x 594 km, 98.0° (Epoch: 08 June)

Date Brightness Start Highest point End Pass type
(mag) Time Alt. Az. Time Alt. Az. Time Alt. Az.
09 Jun ? 03:31:15 71° SE 03:31:36 77° ENE 03:35:46 10° N visible
10 Jun ? 03:38:29 77° S 03:38:45 85° WSW 03:42:57 10° NNW visible
11 Jun ? 03:45:42 67° SW 03:45:55 69° W 03:50:04 10° NNW visible
12 Jun ? 03:52:56 54° WSW 03:53:04 55° W 03:57:11 10° NNW visible
13 Jun ? 02:24:03 10° E 02:25:16 11° ENE 02:26:29 10° NE visible
13 Jun ? 04:00:09 44° WSW 04:00:15 44° W 04:04:14 10° NNW visible
14 Jun ? 02:30:54 12° E 02:32:21 14° ENE 02:34:25 10° NE visible
14 Jun ? 04:07:23 35° W 04:07:25 35° W 04:11:15 10° NNW visible
15 Jun ? 02:38:07 14° E 02:39:26 16° ENE 02:42:04 10° NNE visible
15 Jun ? 04:14:36 29° W 04:14:36 29° W 04:18:13 10° NW visible
16 Jun ? 02:45:20 18° E 02:46:31 20° ENE 02:49:33 10° NNE visible
16 Jun ? 04:21:49 24° W 04:21:49 24° W 04:25:07 10° NW visible
17 Jun ? 02:52:34 22° E 02:53:37 24° ENE 02:56:58 10° NNE visible
17 Jun ? 04:29:02 19° W 04:29:02 19° W 04:31:58 10° NW visible
18 Jun ? 02:59:47 26° E 03:00:42 29° ENE 03:04:18 10° NNE visible
18 Jun ? 04:36:15 16° W 04:36:15 16° W 04:38:41 10° WNW visible
